Theta_e
336 337 342 341 341 343 342 342 342 338 336 336 334 336 337 338 339 340 339 339 338 335 334 334 331 329 330 328 330 330 330 330 332 334 335 337 337 336 332 331 331 331 331
343 344 343 343 343 343 342 342 343 342 338 335 335 337 340 340 341 340 340 340 340 337 334 334 334 333 332 329 330 332 332 330 330 331 333 337 339 337 337 335 333 335 335
343 343 343 343 343 344 343 342 344 343 341 336 335 339 340 339 340 341 342 341 341 341 340 339 336 334 333 330 329 331 332 330 330 330 331 333 338 338 335 337 338 336 335
343 343 342 342 343 343 343 342 343 344 344 341 335 336 341 340 341 341 341 341 342 342 338 335 335 337 339 338 337 335 331 332 331 330 330 332 335 337 337 337 336 338 337
343 344 344 344 342 343 344 343 341 342 343 344 342 338 341 340 340 341 341 340 341 342 343 343 336 333 334 336 337 336 333 332 331 330 331 333 335 338 338 339 338 338 336
345 344 344 341 341 344 344 344 344 342 342 342 343 343 343 341 340 340 341 341 341 341 342 342 343 336 332 333 333 334 333 330 331 333 335 337 338 338 338 338 337 338 335
345 343 344 344 340 344 345 344 346 344 343 342 341 342 342 342 341 341 339 340 342 341 341 341 341 344 341 334 331 331 332 335 340 340 338 341 342 341 338 337 337 337 333
346 345 344 345 343 345 344 345 345 344 343 343 344 345 346 346 343 343 341 340 340 342 340 339 341 342 342 343 342 341 342 342 342 342 341 341 341 342 339 335 334 334 331
347 347 345 345 345 344 344 343 345 345 344 343 343 344 345 346 345 343 343 342 341 340 340 341 339 338 338 339 343 344 343 344 345 344 343 343 342 340 338 333 332 332 332
345 347 346 346 346 343 343 342 346 345 344 344 342 345 344 343 346 342 343 342 342 342 340 340 341 342 342 340 338 340 341 342 343 344 345 344 342 343 339 336 333 331 333
346 346 346 346 346 345 345 342 344 344 345 345 344 344 344 343 343 345 345 345 342 342 342 341 340 341 341 342 342 341 341 342 344 345 344 344 343 343 342 338 335 334 335
346 345 345 346 345 346 346 344 343 341 340 345 346 344 343 342 342 344 346 343 343 343 341 342 342 342 342 343 343 343 342 343 344 344 343 343 344 344 343 341 339 337 336
345 346 344 345 346 346 345 345 343 342 341 341 345 342 343 343 343 344 345 343 345 345 340 341 339 342 342 341 341 341 342 342 343 343 344 343 344 343 343 343 341 338 339
347 347 347 345 344 345 346 346 345 343 341 342 343 342 343 343 346 346 345 344 346 348 346 343 343 343 342 342 342 341 340 340 342 342 344 344 344 341 341 344 345 346 344
345 346 347 346 343 344 347 345 343 343 342 342 341 344 343 344 344 345 346 344 347 347 347 344 341 342 342 341 343 341 340 341 343 343 343 343 343 341 342 344 345 346 345
346 346 345 346 344 343 345 346 345 342 342 343 342 343 343 343 343 345 344 344 345 347 347 345 346 342 342 341 340 339 339 340 339 340 344 344 344 343 344 346 346 346 344
347 346 346 346 345 344 346 346 345 344 342 342 341 342 343 343 344 345 345 344 345 345 347 348 342 344 343 343 343 342 341 339 342 343 342 342 344 346 345 346 346 346 342
346 346 347 345 345 345 346 345 346 345 342 344 343 343 341 344 343 344 344 343 344 345 347 346 347 345 346 345 344 343 343 342 341 342 343 344 346 344 344 344 344 346 342
346 346 347 347 345 346 345 344 345 346 346 345 344 343 342 345 344 344 343 343 343 344 345 345 347 345 342 343 345 342 340 343 342 342 342 342 342 341 341 340 343 344 341
349 348 348 347 345 344 345 346 346 346 345 346 344 344 344 342 344 345 344 342 343 343 345 345 348 349 346 347 345 346 348 349 348 345 344 340 340 342 341 342 342 343 342
347 347 347 346 346 346 344 345 344 345 345 345 344 343 343 344 344 344 343 342 343 345 344 348 349 349 349 348 348 347 344 344 342 334 334 342 343 343 342 342 342 342 342
340 342 345 347 346 344 343 345 345 345 345 345 343 342 343 344 344 343 345 345 342 343 344 348 349 348 347 342 340 328 324 324 333 338 330 335 337 334 344 344 339 340 342
341 340 343 342 337 339 345 344 345 345 345 345 345 343 343 344 343 345 346 345 345 343 343 343 344 342 332 326 324 323 323 321 323 330 329 327 331 332 331 333 338 342 342
336 337 337 342 340 335 339 340 343 344 344 344 344 340 342 344 345 345 344 345 345 342 343 345 342 334 326 323 321 321 322 323 325 332 333 334 337 337 335 336 329 333 340
332 336 334 338 340 340 339 336 338 339 344 343 344 344 345 344 344 344 345 346 344 343 344 344 341 330 323 320 320 321 327 334 335 336 334 335 336 339 338 339 338 329 339
331 331 335 336 333 332 332 335 335 336 336 342 345 345 343 343 344 345 347 345 345 344 346 344 340 324 321 319 321 325 330 331 332 334 337 334 338 338 339 338 339 339 333
Wind_Speed
11 11 9 9 8 7 7 9 9 11 10 10 10 10 8 9 9 8 10 10 10 14 19 16 17 16 16 15 14 12 10 8 8 8 8 9 9 8 8 8 8 9 9
8 5 5 7 7 9 9 8 9 11 12 11 12 11 10 9 9 9 8 7 7 10 16 18 19 18 18 18 17 15 14 11 8 7 9 11 11 11 10 9 9 9 10
8 6 5 4 6 8 9 10 9 10 12 14 13 13 12 11 10 10 10 9 9 10 13 15 18 19 20 21 22 20 18 16 13 11 11 13 13 13 13 12 12 11 11
7 7 8 7 7 9 8 7 9 10 11 12 14 14 13 12 13 12 11 10 11 10 11 14 18 20 22 23 24 23 22 18 16 15 14 15 15 14 14 14 13 12 12
11 9 8 9 9 9 8 8 8 8 8 10 12 14 15 15 15 15 14 13 11 10 10 10 12 17 21 24 25 24 21 19 17 15 15 16 15 15 15 14 14 14 13
13 11 9 7 7 5 5 6 6 8 7 9 10 13 15 15 17 18 17 16 16 14 13 11 11 11 14 19 23 21 19 18 15 15 15 14 15 16 16 15 15 15 14
14 14 11 7 7 6 5 7 7 8 8 7 8 11 15 16 17 17 19 19 18 18 17 15 14 11 8 8 12 13 14 13 13 14 14 13 13 15 16 16 15 14 14
16 16 15 11 9 7 8 8 9 8 8 7 7 7 5 9 17 19 18 20 21 21 18 19 17 14 11 10 10 11 12 13 12 13 11 12 13 12 14 16 15 14 14
19 16 15 15 12 11 9 8 8 10 8 9 7 7 3 3 6 9 15 20 20 20 20 20 20 20 17 17 17 16 16 15 15 16 14 13 12 12 12 14 14 14 14
20 19 17 16 15 14 11 11 10 9 11 10 9 8 12 11 6 7 11 10 16 22 22 23 22 21 19 19 21 21 19 18 18 19 19 17 15 14 13 13 14 15 14
19 19 18 18 18 15 13 10 12 11 9 9 10 12 10 12 15 14 17 9 11 14 16 26 26 25 24 23 23 25 24 22 21 22 21 19 17 16 15 14 14 15 14
20 22 20 19 20 19 18 14 12 12 13 11 11 11 13 13 12 11 12 14 13 12 14 13 18 23 24 24 26 25 27 29 26 22 21 20 19 18 17 15 14 15 14
18 21 22 23 21 21 18 17 16 14 12 14 12 11 13 14 13 12 12 13 10 11 9 10 12 14 14 15 17 17 20 24 25 21 22 20 20 20 19 16 15 15 15
18 18 19 21 22 21 19 18 17 15 12 13 13 13 14 14 14 13 12 11 9 8 11 8 7 7 8 10 16 19 20 19 25 23 21 22 19 18 19 19 18 17 17
18 18 19 20 21 21 20 19 18 17 15 15 14 13 13 13 14 13 12 13 10 10 7 5 4 4 7 10 9 12 10 16 16 19 19 19 19 20 21 21 20 18 18
17 17 17 19 20 21 22 20 19 19 18 16 15 14 14 13 14 11 12 12 14 11 9 6 6 9 9 9 8 9 10 15 20 18 18 19 19 21 21 22 20 19 18
17 17 18 20 20 20 19 20 19 20 21 18 16 16 14 14 11 14 12 14 14 13 12 10 11 9 9 7 7 9 9 11 13 14 16 20 20 22 24 23 23 22 22
19 18 18 18 22 22 23 23 21 19 20 19 17 17 16 15 15 14 14 14 14 13 13 13 11 11 9 10 10 10 10 11 12 14 17 17 18 20 21 22 21 23 26
13 16 18 20 21 21 19 22 23 22 21 21 20 18 17 17 17 16 15 15 14 16 15 14 12 12 13 11 11 11 10 11 13 15 16 17 19 21 22 22 24 24 25
9 13 18 19 20 24 23 24 25 24 22 21 21 20 19 21 19 19 18 16 16 16 16 15 14 13 13 14 14 14 12 11 12 14 16 18 20 20 21 21 22 23 23
7 11 13 16 18 20 24 24 23 25 24 23 22 23 22 23 21 20 18 16 15 15 15 14 13 12 13 12 12 12 15 15 16 19 18 15 18 20 21 22 21 20 21
12 13 15 14 14 15 19 23 25 24 25 26 25 24 23 23 23 22 21 19 16 15 16 13 12 13 15 14 13 15 18 19 13 12 15 15 16 18 17 19 24 22 21
7 11 18 19 16 18 21 21 23 25 25 27 30 27 24 24 25 23 21 19 18 17 16 15 15 15 17 17 18 19 19 19 19 16 18 22 17 19 19 21 26 23 21
14 16 17 22 18 16 19 19 23 21 26 26 32 33 29 27 27 24 22 21 19 18 16 16 17 17 18 18 18 20 18 19 17 15 14 16 13 15 17 19 24 26 24
9 11 12 15 14 17 20 20 21 26 26 29 31 33 32 28 28 25 24 21 20 19 18 17 17 18 18 18 19 18 14 10 11 10 13 10 10 13 11 12 13 20 20
12 13 15 17 18 20 19 25 33 35 30 30 31 34 32 31 28 28 26 23 23 19 19 19 18 18 18 19 17 15 12 11 12 12 6 8 9 10 7 8 4 9 15
Wind_Direction
236 246 248 250 259 281 293 258 242 235 229 229 226 223 226 225 226 222 226 233 229 214 208 219 216 222 231 233 232 236 245 251 253 258 271 278 281 274 270 266 267 269 267
229 247 251 259 278 278 279 270 246 242 236 233 228 233 237 230 223 214 213 220 218 213 221 234 231 235 235 235 238 245 250 253 259 270 275 277 281 281 272 272 270 269 271
235 232 256 291 280 286 281 265 254 242 239 236 236 239 238 232 213 209 225 226 235 228 231 237 236 237 238 241 246 251 254 257 261 267 278 275 274 277 276 273 272 272 272
225 245 255 265 294 313 280 275 250 251 248 238 236 237 232 233 218 224 223 231 240 244 246 244 245 244 243 245 249 252 253 257 261 270 277 279 273 272 268 269 271 270 270
238 248 263 262 273 284 266 269 268 256 255 253 243 241 243 234 227 228 229 237 245 235 246 253 250 249 246 244 246 248 251 257 264 273 278 278 274 272 269 265 269 270 268
230 236 252 263 260 285 279 264 270 264 264 258 248 245 242 243 241 237 233 234 233 234 242 247 256 256 249 242 240 243 247 254 263 267 268 270 272 270 270 267 267 267 265
231 235 245 258 249 269 261 261 265 270 272 274 258 257 252 252 248 242 240 236 238 243 251 248 250 251 254 243 233 232 242 250 259 264 263 266 273 270 267 265 263 262 262
236 238 242 250 249 247 254 267 272 266 278 277 275 266 256 260 259 253 246 244 247 245 251 247 244 246 252 253 242 238 246 254 263 265 272 270 270 265 261 262 257 256 256
239 242 244 245 251 243 251 257 277 267 282 280 294 252 270 261 301 281 263 255 253 251 245 248 248 248 251 251 247 249 249 256 264 269 270 272 273 267 255 257 254 253 254
245 249 245 247 248 243 256 257 264 272 275 274 266 280 252 266 295 302 304 286 265 257 253 249 249 249 252 253 251 251 251 254 259 266 267 267 268 267 261 252 254 253 255
249 245 249 247 242 242 249 259 256 263 276 265 268 275 275 267 276 275 285 288 287 275 267 253 251 252 259 256 254 254 253 254 259 260 260 258 259 262 261 257 250 252 254
256 246 248 250 246 239 250 252 254 263 257 261 271 271 274 278 280 287 278 297 302 287 285 267 256 254 256 259 258 261 260 255 256 256 253 252 256 257 258 256 253 250 251
262 257 250 250 250 247 253 248 253 265 258 258 262 268 277 278 280 281 282 287 285 304 299 286 272 254 250 257 259 259 270 257 240 250 247 248 252 254 250 251 253 258 257
271 268 266 254 252 249 247 251 254 253 257 253 262 265 274 268 275 273 278 278 283 301 310 288 276 264 273 274 259 270 272 246 233 242 245 245 246 240 244 253 257 260 265
272 271 264 257 255 252 249 248 247 249 258 258 260 269 274 270 275 274 270 264 260 286 297 297 296 266 282 298 280 280 270 242 229 238 238 242 241 239 242 249 252 255 259
269 266 263 257 253 253 248 250 249 251 256 259 261 268 272 273 273 266 269 259 258 254 260 281 288 294 295 291 270 297 277 249 233 243 242 240 240 242 254 258 250 248 257
264 260 261 257 251 248 247 248 253 248 252 256 262 261 267 272 263 265 264 250 258 255 255 270 278 284 293 301 300 281 307 251 244 251 248 250 250 251 252 257 258 255 252
261 261 256 253 248 250 248 244 241 248 249 256 261 262 263 267 265 254 252 251 249 255 260 275 277 289 295 294 287 283 277 268 260 261 258 254 255 255 256 258 255 251 252
261 260 261 258 246 244 246 236 241 243 249 259 258 256 258 252 253 252 248 244 248 250 260 270 277 286 294 292 293 286 276 266 264 263 262 261 259 259 257 259 256 258 256
303 290 272 267 259 248 248 249 246 244 246 252 251 250 250 251 250 247 244 248 248 254 263 271 275 280 286 291 292 286 285 278 273 272 271 264 265 263 261 260 256 256 253
304 292 278 273 276 266 256 252 253 248 248 251 249 247 247 248 250 244 243 246 245 254 259 263 266 274 283 286 287 279 288 287 289 285 279 275 268 265 261 257 257 253 255
299 274 265 258 267 275 271 264 254 254 251 250 245 242 243 244 241 239 242 243 242 247 252 253 267 270 279 283 283 286 291 295 299 288 290 281 276 266 260 259 254 253 250
252 280 268 254 271 300 269 259 254 252 254 254 246 245 243 240 238 238 238 238 241 249 253 265 269 275 279 284 287 290 290 291 291 285 291 291 288 279 273 255 251 243 242
279 271 271 269 264 273 258 281 252 258 250 245 243 247 245 245 243 237 235 237 245 249 257 259 271 278 283 285 288 290 291 292 296 301 300 297 303 289 280 263 252 243 245
314 291 271 246 247 248 240 247 247 263 258 243 242 242 242 245 242 234 234 242 247 249 256 260 272 280 284 291 294 296 299 291 293 289 295 292 313 316 301 277 257 239 237
297 290 266 253 266 267 259 253 252 239 235 235 237 242 240 241 241 233 237 242 247 250 254 266 276 283 290 296 296 296 288 288 298 323 304 308 315 323 330 325 246 233 230